2023/07/25 00:00:00, 0.1,23.4
2023/07/25 00:10:00, 0.1,22.9
2023/07/25 00:20:00, 0.1,22.7
2023/07/25 00:30:00, 0.1,22.6
2023/07/25 00:40:00, 0.1,22.6
2023/07/25 00:50:00, 0.1,22.8
2023/07/25 01:00:00, 0.1,22.7
2023/07/25 01:10:00, 0.1,22.4
2023/07/25 01:20:00, 0.1,22.6
2023/07/25 01:30:00, 0.1,22.6
2023/07/25 01:40:00, 0.1,22.5
2023/07/25 01:50:00, 0.1,22.6
2023/07/25 02:00:00, 0.1,22.3
2023/07/25 02:10:00, 0.1,22.4
2023/07/25 02:20:00, 0.2,22.1
2023/07/25 02:30:00,11.9,22.5
2023/07/25 02:40:00, 7.2,22.6
2023/07/25 02:50:00, 4.8,22.6
2023/07/25 03:00:00, 0.2,22.3
2023/07/25 03:10:00, 0.3,22.5
2023/07/25 03:20:00, 0.3,22.6
2023/07/25 03:30:00, 0.2,22.3
2023/07/25 03:40:00, 0.2,22.5
2023/07/25 03:50:00, 0.2,22.7
2023/07/25 04:00:00, 0.4,23.2
2023/07/25 04:10:00, 0.1,23.0
2023/07/25 04:20:00, 0.1,22.9
2023/07/25 04:30:00, 0.2,23.0
2023/07/25 04:40:00, 0.6,23.0
2023/07/25 04:50:00,12.2,23.0
2023/07/25 05:00:00, 9.0,23.2
2023/07/25 05:10:00, 0.2,23.2
2023/07/25 05:20:00, 0.1,23.4
2023/07/25 05:30:00, 0.1,23.3
2023/07/25 05:40:00, 0.3,23.4
2023/07/25 05:50:00, 0.1,24.0
2023/07/25 06:00:00, 0.1,24.3
2023/07/25 06:10:00, 0.1,24.0
2023/07/25 06:20:00, 0.1,24.3
2023/07/25 06:30:00, 0.1,24.7
2023/07/25 06:40:00, 6.7,24.8
2023/07/25 06:50:00,13.4,26.2
2023/07/25 07:00:00, 6.8,27.3
2023/07/25 07:10:00, 0.1,28.6
2023/07/25 07:20:00, 0.1,29.3
2023/07/25 07:30:00, 0.1,29.9
2023/07/25 07:40:00, 0.1,30.2
2023/07/25 07:50:00, 0.3,30.8
2023/07/25 08:00:00, 0.4,30.8
2023/07/25 08:10:00, 0.4,31.1
2023/07/25 08:20:00, 0.4,31.5
2023/07/25 08:30:00, 0.4,31.4
2023/07/25 08:40:00, 0.4,31.5
2023/07/25 08:50:00, 0.4,31.5
2023/07/25 09:00:00, 0.4,32.0
2023/07/25 09:10:00, 0.3,32.3
2023/07/25 09:20:00, 0.4,32.8
2023/07/25 09:30:00, 0.3,33.5
2023/07/25 09:40:00, 0.3,33.5
2023/07/25 09:50:00, 0.2,33.7
2023/07/25 10:00:00, 0.3,34.1
2023/07/25 10:10:00, 0.2,34.5
2023/07/25 10:20:00, 0.2,34.9
2023/07/25 10:30:00, 0.3,35.4
2023/07/25 10:40:00, 0.3,35.3
2023/07/25 10:50:00, 0.4,34.9
2023/07/25 11:00:00, 0.3,35.0
2023/07/25 11:10:00, 0.3,35.1
2023/07/25 11:20:00, 0.3,34.8
2023/07/25 11:30:00, 0.2,34.8
2023/07/25 11:40:00, 0.3,35.1
2023/07/25 11:50:00, 0.3,35.0
2023/07/25 12:00:00, 0.3,35.0
2023/07/25 12:10:00, 0.3,34.9
2023/07/25 12:20:00, 0.3,35.0
2023/07/25 12:30:00, 0.3,35.2
2023/07/25 12:40:00, 0.3,35.3
2023/07/25 12:50:00, 0.3,35.0
2023/07/25 13:00:00, 0.3,35.2
2023/07/25 13:10:00, 0.3,35.0
2023/07/25 13:20:00, 0.3,34.9
2023/07/25 13:30:00, 0.3,34.8
2023/07/25 13:40:00, 0.3,35.2
2023/07/25 13:50:00, 0.4,34.4
2023/07/25 14:00:00, 0.3,32.3
2023/07/25 14:10:00, 0.3,31.9
2023/07/25 14:20:00, 0.3,33.8
2023/07/25 14:30:00, 0.3,34.4
2023/07/25 14:40:00, 0.3,32.6
2023/07/25 14:50:00, 0.3,34.0
2023/07/25 15:00:00, 0.3,33.1
2023/07/25 15:10:00, 0.3,33.9
2023/07/25 15:20:00, 0.3,34.2
2023/07/25 15:30:00, 0.3,34.1
2023/07/25 15:40:00, 0.3,32.7
2023/07/25 15:50:00, 0.3,33.6
2023/07/25 16:00:00, 0.3,34.0
2023/07/25 16:10:00, 0.3,33.2
2023/07/25 16:20:00, 0.3,32.1
2023/07/25 16:30:00, 0.3,32.8
2023/07/25 16:40:00, 0.3,31.4
2023/07/25 16:50:00, 0.3,30.0
2023/07/25 17:00:00, 0.8,29.4
2023/07/25 17:10:00, 1.7,28.7
2023/07/25 17:20:00, 0.1,28.1
2023/07/25 17:30:00, 0.1,28.1
2023/07/25 17:40:00, 0.1,27.9
2023/07/25 17:50:00, 0.0,27.6
2023/07/25 18:00:00, 0.0,27.6
2023/07/25 18:10:00, 0.0,27.3
2023/07/25 18:20:00, 0.0,27.2
2023/07/25 18:30:00, 0.1,27.2
2023/07/25 18:40:00, 0.1,27.2
2023/07/25 18:50:00, 0.1,26.5
2023/07/25 19:00:00, 0.1,26.2
2023/07/25 19:10:00, 0.1,25.9
2023/07/25 19:20:00, 0.1,25.3
2023/07/25 19:30:00, 0.1,25.1
2023/07/25 19:40:00, 0.1,25.1
2023/07/25 19:50:00, 0.1,24.7
2023/07/25 20:00:00, 0.1,24.7
2023/07/25 20:10:00, 0.1,24.8
2023/07/25 20:20:00, 0.1,24.4
2023/07/25 20:30:00, 0.1,24.3
2023/07/25 20:40:00, 0.1,24.5
2023/07/25 20:50:00, 0.0,24.1
2023/07/25 21:00:00, 0.1,24.0
2023/07/25 21:10:00, 0.1,24.3
2023/07/25 21:20:00, 0.1,24.0
2023/07/25 21:30:00, 0.1,24.0
2023/07/25 21:40:00, 0.1,25.2
2023/07/25 21:50:00, 0.1,23.8
2023/07/25 22:00:00, 0.1,23.6
2023/07/25 22:10:00, 0.1,23.5
2023/07/25 22:20:00, 0.1,23.6
2023/07/25 22:30:00, 0.1,23.3
2023/07/25 22:40:00, 0.2,23.3
2023/07/25 22:50:00, 0.2,23.4
2023/07/25 23:00:00, 0.2,23.2
2023/07/25 23:10:00, 0.1,23.2
2023/07/25 23:20:00, 0.1,23.1
2023/07/25 23:30:00, 0.1,23.1
2023/07/25 23:40:00, 0.1,22.7
2023/07/25 23:50:00, 0.1,22.8
